| time (UTC) | temp C | wind direction | speed KPH | gust KPH | rain 1hr cm | rain 24hr cm | rain mn cm | humidity % | barometer mb |
| 20260831175032 | 20 | 0.0 | 0.0 | 0.00 | 0.00 | 0.00 | 67 | 1015.4 | |
| 20260831174025 | 21 | 0.0 | 0.0 | 0.00 | 0.00 | 0.00 | 67 | 1015.8 | |
| 20260831173027 | 21 | 0.0 | 0.0 | 0.00 | 0.00 | 0.00 | 66 | 1015.5 | |
| 20260831172032 | 21 | 0.0 | 0.0 | 0.00 | 0.00 | 0.00 | 66 | 1015.4 | |
| 20260831171023 | 22 | 0.0 | 0.0 | 0.00 | 0.00 | 0.00 | 67 | 1015.8 | |
| 20260831170031 | 22 | 0.0 | 0.0 | 0.00 | 0.00 | 0.00 | 67 | 1015.8 | |
| 20260831165027 | 22 | 0.0 | 0.0 | 0.00 | 0.00 | 0.00 | 66 | 1015.8 | |
| 20260831164028 | 23 | 0.0 | 0.0 | 0.00 | 0.00 | 0.00 | 66 | 1015.5 | |
| 20260831163036 | 23 | 319 | 0.0 | 0.0 | 0.00 | 0.00 | 0.00 | 67 | 1015.6 |
| 20260831162023 | 24 | 281 | 0.0 | 0.0 | 0.00 | 0.00 | 0.00 | 67 | 1015.6 |
| 20260831161032 | 25 | 0.0 | 0.0 | 0.00 | 0.00 | 0.00 | 67 | 1015.6 | |
| 20260831160047 | 25 | 296 | 1.6 | 4.8 | 0.00 | 0.00 | 0.00 | 66 | 1015.6 |
| 20260831155023 | 25 | 0.0 | 0.0 | 0.00 | 0.00 | 0.00 | 67 | 1015.6 | |
| 20260831154023 | 25 | 0.0 | 0.0 | 0.00 | 0.00 | 0.00 | 67 | 1016.0 | |
| 20260831153024 | 25 | 350 | 0.0 | 0.0 | 0.00 | 0.00 | 0.00 | 68 | 1016.0 |
| 20260831152031 | 25 | 0.0 | 0.0 | 0.00 | 0.00 | 0.00 | 68 | 1016.0 | |
| 20260831151025 | 25 | 0.0 | 0.0 | 0.00 | 0.00 | 0.00 | 69 | 1015.6 | |
| 20260831150022 | 25 | 258 | 0.0 | 0.0 | 0.00 | 0.00 | 0.00 | 67 | 1016.0 |
| 20260831145026 | 27 | 285 | 0.0 | 3.2 | 0.00 | 0.00 | 0.00 | 62 | 1016.1 |
| 20260831144026 | 28 | 290 | 0.0 | 0.0 | 0.00 | 0.00 | 0.00 | 58 | 1016.2 |
| 20260831143111 | 28 | 300 | 1.6 | 3.2 | 0.00 | 0.00 | 0.00 | 59 | 1016.2 |
| 20260831142036 | 28 | 311 | 1.6 | 6.4 | 0.00 | 0.00 | 0.00 | 60 | 1016.1 |
| 20260831141026 | 27 | 283 | 0.0 | 3.2 | 0.00 | 0.00 | 0.00 | 61 | 1016.1 |
| 20260831140023 | 28 | 292 | 1.6 | 6.4 | 0.00 | 0.00 | 0.00 | 62 | 1016.1 |
| 20260831135030 | 27 | 278 | 1.6 | 6.4 | 0.00 | 0.00 | 0.00 | 62 | 1016.1 |
| 20260831134019 | 26 | 276 | 1.6 | 4.8 | 0.00 | 0.00 | 0.00 | 64 | 1016.1 |
| 20260831133021 | 27 | 279 | 1.6 | 6.4 | 0.00 | 0.00 | 0.00 | 62 | 1016.1 |
| 20260831132035 | 27 | 0.0 | 0.0 | 0.00 | 0.00 | 0.00 | 63 | 1016.1 | |
| 20260831131046 | 27 | 257 | 1.6 | 6.4 | 0.00 | 0.00 | 0.00 | 63 | 1016.1 |
| 20260831130024 | 27 | 0.0 | 0.0 | 0.00 | 0.00 | 0.00 | 65 | 1016.1 | |
| 20260831125020 | 25 | 249 | 0.0 | 1.6 | 0.00 | 0.00 | 0.00 | 68 | 1016.0 |
| 20260831124027 | 25 | 275 | 1.6 | 4.8 | 0.00 | 0.00 | 0.00 | 67 | 1016.3 |
| 20260831123029 | 25 | 282 | 1.6 | 4.8 | 0.00 | 0.00 | 0.00 | 68 | 1016.3 |
| 20260831122029 | 25 | 273 | 1.6 | 4.8 | 0.00 | 0.00 | 0.00 | 68 | 1016.3 |
| 20260831121039 | 25 | 273 | 1.6 | 6.4 | 0.00 | 0.00 | 0.00 | 68 | 1016.6 |
| 20260831120026 | 23 | 270 | 3.2 | 8.0 | 0.00 | 0.00 | 0.00 | 69 | 1016.2 |
| 20260831115023 | 23 | 255 | 1.6 | 3.2 | 0.00 | 0.00 | 0.00 | 71 | 1016.2 |
| 20260831114052 | 23 | 258 | 0.0 | 4.8 | 0.00 | 0.00 | 0.00 | 72 | 1016.2 |
| 20260831113038 | 22 | 262 | 0.0 | 3.2 | 0.00 | 0.00 | 0.00 | 75 | 1016.5 |
| 20260831112035 | 22 | 0.0 | 0.0 | 0.00 | 0.00 | 0.00 | 76 | 1016.5 | |
| 20260831111018 | 21 | 245 | 0.0 | 1.6 | 0.00 | 0.00 | 0.00 | 75 | 1016.5 |
| 20260831110021 | 21 | 283 | 1.6 | 3.2 | 0.00 | 0.00 | 0.00 | 75 | 1016.5 |
| 20260831105031 | 21 | 245 | 0.0 | 0.0 | 0.00 | 0.00 | 0.00 | 76 | 1016.5 |
| 20260831104028 | 21 | 266 | 1.6 | 4.8 | 0.00 | 0.00 | 0.00 | 76 | 1016.5 |
| 20260831103025 | 21 | 272 | 1.6 | 6.4 | 0.00 | 0.00 | 0.00 | 76 | 1016.5 |
| 20260831102032 | 21 | 273 | 1.6 | 4.8 | 0.00 | 0.00 | 0.00 | 77 | 1016.5 |
| 20260831101105 | 21 | 265 | 1.6 | 6.4 | 0.00 | 0.00 | 0.00 | 76 | 1016.5 |
| 20260831095521 | 21 | 250 | 1.6 | 6.4 | 0.00 | 0.00 | 0.00 | 75 | 1016.2 |
| 20260831094555 | 21 | 273 | 1.6 | 4.8 | 0.00 | 0.00 | 0.00 | 75 | 1016.5 |
| 20260831093519 | 22 | 267 | 1.6 | 6.4 | 0.00 | 0.00 | 0.00 | 75 | 1016.6 |
| 20260831092539 | 22 | 273 | 0.0 | 4.8 | 0.00 | 0.00 | 0.00 | 76 | 1016.0 |
| 20260831091550 | 21 | 0.0 | 0.0 | 0.00 | 0.00 | 0.00 | 80 | 1016.3 | |
| 20260831090519 | 20 | 254 | 0.0 | 1.6 | 0.00 | 0.00 | 0.00 | 85 | 1016.2 |
| 20260831085553 | 20 | 0.0 | 0.0 | 0.00 | 0.00 | 0.00 | 88 | 1015.8 | |
| 20260831084552 | 19 | 0.0 | 0.0 | 0.00 | 0.00 | 0.00 | 88 | 1015.8 | |
| 20260831083520 | 19 | 0.0 | 0.0 | 0.00 | 0.00 | 0.00 | 87 | 1015.8 | |
| 20260831082519 | 19 | 0.0 | 0.0 | 0.00 | 0.00 | 0.00 | 86 | 1015.8 | |
| 20260831081540 | 19 | 0.0 | 0.0 | 0.00 | 0.00 | 0.00 | 85 | 1015.8 | |
| 20260831080523 | 20 | 0.0 | 0.0 | 0.00 | 0.00 | 0.00 | 85 | 1015.9 | |
| 20260831075519 | 20 | 0.0 | 0.0 | 0.00 | 0.00 | 0.00 | 84 | 1015.6 | |
| 20260831074521 | 20 | 0.0 | 0.0 | 0.00 | 0.00 | 0.00 | 83 | 1015.6 | |
| 20260831073554 | 20 | 0.0 | 0.0 | 0.00 | 0.00 | 0.00 | 84 | 1015.6 | |
| 20260831072520 | 20 | 0.0 | 0.0 | 0.00 | 0.00 | 0.00 | 84 | 1015.6 | |
| 20260831071520 | 20 | 0.0 | 0.0 | 0.00 | 0.00 | 0.00 | 84 | 1015.6 | |
| 20260831070606 | 20 | 0.0 | 0.0 | 0.00 | 0.00 | 0.00 | 84 | 1015.6 | |
| 20260831065523 | 20 | 0.0 | 0.0 | 0.00 | 0.00 | 0.00 | 85 | 1015.6 | |
| 20260831064520 | 19 | 0.0 | 0.0 | 0.00 | 0.00 | 0.00 | 90 | 1016.0 | |
| 20260831063551 | 18 | 0.0 | 0.0 | 0.00 | 0.00 | 0.00 | 93 | 1016.0 | |
| 20260831062603 | 17 | 0.0 | 0.0 | 0.00 | 0.00 | 0.00 | 94 | 1015.9 | |
| 20260831061521 | 17 | 0.0 | 0.0 | 0.00 | 0.00 | 0.00 | 94 | 1015.9 | |
| 20260831060520 | 17 | 0.0 | 0.0 | 0.00 | 0.00 | 0.00 | 95 | 1015.9 | |
| 20260831055520 | 17 | 0.0 | 0.0 | 0.00 | 0.00 | 0.00 | 95 | 1015.9 | |
| 20260831054523 | 17 | 0.0 | 0.0 | 0.00 | 0.00 | 0.00 | 96 | 1016.0 | |
| 20260831053520 | 16 | 0.0 | 0.0 | 0.00 | 0.00 | 0.00 | 96 | 1015.9 | |
| 20260831052540 | 16 | 0.0 | 0.0 | 0.00 | 0.00 | 0.00 | 96 | 1015.9 | |
| 20260831051552 | 16 | 0.0 | 0.0 | 0.00 | 0.00 | 0.00 | 97 | 1016.0 | |
| 20260831050521 | 15 | 0.0 | 0.0 | 0.00 | 0.00 | 0.00 | 97 | 1016.0 | |
| 20260831045521 | 15 | 0.0 | 0.0 | 0.00 | 0.00 | 0.00 | 97 | 1016.0 | |
| 20260831044519 | 15 | 0.0 | 0.0 | 0.00 | 0.00 | 0.00 | 97 | 1016.0 | |
| 20260831043520 | 15 | 0.0 | 0.0 | 0.00 | 0.00 | 0.00 | 97 | 1016.0 | |
| 20260831042553 | 15 | 0.0 | 0.0 | 0.00 | 0.00 | 0.00 | 97 | 1016.0 | |
| 20260831041523 | 15 | 0.0 | 0.0 | 0.00 | 0.00 | 0.00 | 97 | 1016.0 | |
| 20260831040520 | 15 | 0.0 | 0.0 | 0.00 | 0.00 | 0.00 | 97 | 1016.0 | |
| 20260831035523 | 15 | 0.0 | 0.0 | 0.00 | 0.00 | 0.00 | 97 | 1015.7 | |
| 20260831034523 | 14 | 0.0 | 0.0 | 0.00 | 0.00 | 0.00 | 97 | 1015.8 | |
| 20260831033525 | 14 | 0.0 | 0.0 | 0.00 | 0.00 | 0.00 | 97 | 1015.8 | |
| 20260831032522 | 14 | 0.0 | 0.0 | 0.00 | 0.00 | 0.00 | 97 | 1015.8 | |
| 20260831031518 | 14 | 0.0 | 0.0 | 0.00 | 0.00 | 0.00 | 97 | 1015.9 | |
| 20260831030540 | 14 | 0.0 | 0.0 | 0.00 | 0.00 | 0.00 | 97 | 1015.9 | |
| 20260831025520 | 14 | 0.0 | 0.0 | 0.00 | 0.00 | 0.00 | 97 | 1016.2 | |
| 20260831024522 | 14 | 0.0 | 0.0 | 0.00 | 0.00 | 0.00 | 97 | 1016.1 | |
| 20260831023520 | 14 | 0.0 | 0.0 | 0.00 | 0.00 | 0.00 | 97 | 1016.1 | |
| 20260831022519 | 14 | 0.0 | 0.0 | 0.00 | 0.00 | 0.00 | 97 | 1016.1 | |
| 20260831021540 | 14 | 0.0 | 0.0 | 0.00 | 0.00 | 0.00 | 97 | 1016.1 | |
| 20260831020519 | 14 | 0.0 | 0.0 | 0.00 | 0.00 | 0.00 | 97 | 1016.1 | |
| 20260831015519 | 14 | 0.0 | 0.0 | 0.00 | 0.00 | 0.00 | 97 | 1016.1 | |
| 20260831014540 | 14 | 0.0 | 0.0 | 0.00 | 0.00 | 0.00 | 97 | 1016.0 | |
| 20260831013519 | 14 | 0.0 | 0.0 | 0.00 | 0.00 | 0.00 | 96 | 1016.0 | |
| 20260831012520 | 15 | 0.0 | 0.0 | 0.00 | 0.00 | 0.00 | 96 | 1016.1 | |
| 20260831011520 | 15 | 0.0 | 0.0 | 0.00 | 0.00 | 0.00 | 96 | 1016.4 | |
| 20260831010520 | 15 | 0.0 | 0.0 | 0.00 | 0.00 | 0.00 | 96 | 1016.4 | |
| 20260831005519 | 15 | 0.0 | 0.0 | 0.00 | 0.00 | 0.00 | 96 | 1016.4 | |
| 20260831004521 | 15 | 0.0 | 0.0 | 0.00 | 0.00 | 0.00 | 96 | 1016.4 | |
| 20260831003640 | 15 | 0.0 | 0.0 | 0.00 | 0.00 | 0.00 | 96 | 1016.4 | |
| 20260831002520 | 15 | 0.0 | 0.0 | 0.00 | 0.00 | 0.00 | 95 | 1016.4 | |
| 20260831001520 | 15 | 0.0 | 0.0 | 0.00 | 0.00 | 0.00 | 95 | 1016.7 | |
| 20260831000523 | 15 | 0.0 | 0.0 | 0.00 | 0.00 | 0.00 | 95 | 1016.7 | |
| 20260830235522 | 15 | 0.0 | 0.0 | 0.00 | 0.00 | 0.00 | 95 | 1016.4 | |
| 20260830234544 | 16 | 0.0 | 0.0 | 0.00 | 0.00 | 0.00 | 95 | 1016.7 | |
| 20260830233521 | 16 | 0.0 | 0.0 | 0.00 | 0.00 | 0.00 | 94 | 1016.7 | |
| 20260830232552 | 16 | 0.0 | 0.0 | 0.00 | 0.00 | 0.00 | 94 | 1016.7 | |
| 20260830231520 | 16 | 0.0 | 0.0 | 0.00 | 0.00 | 0.00 | 93 | 1016.7 | |
| 20260830230520 | 16 | 0.0 | 0.0 | 0.00 | 0.00 | 0.00 | 93 | 1016.7 | |
| 20260830225543 | 16 | 0.0 | 0.0 | 0.00 | 0.00 | 0.00 | 93 | 1017.1 | |
| 20260830224521 | 16 | 0.0 | 0.0 | 0.00 | 0.00 | 0.00 | 93 | 1017.0 | |
| 20260830223519 | 16 | 0.0 | 0.0 | 0.00 | 0.00 | 0.00 | 92 | 1017.1 | |
| 20260830222523 | 16 | 0.0 | 0.0 | 0.00 | 0.00 | 0.00 | 92 | 1016.7 | |
| 20260830221543 | 16 | 0.0 | 0.0 | 0.00 | 0.00 | 0.00 | 91 | 1016.7 | |
| 20260830220544 | 16 | 0.0 | 0.0 | 0.00 | 0.00 | 0.00 | 90 | 1016.7 | |
| 20260830215601 | 16 | 0.0 | 0.0 | 0.00 | 0.00 | 0.00 | 90 | 1016.7 | |
| 20260830214549 | 17 | 0.0 | 0.0 | 0.00 | 0.00 | 0.00 | 89 | 1016.7 | |
| 20260830213520 | 17 | 0.0 | 0.0 | 0.00 | 0.00 | 0.00 | 89 | 1016.7 | |
| 20260830212527 | 17 | 0.0 | 0.0 | 0.00 | 0.00 | 0.00 | 90 | 1016.3 | |
| 20260830211552 | 17 | 0.0 | 0.0 | 0.00 | 0.00 | 0.00 | 89 | 1016.4 | |
| 20260830210613 | 17 | 0.0 | 0.0 | 0.00 | 0.00 | 0.00 | 89 | 1016.4 | |
| 20260830205518 | 17 | 0.0 | 0.0 | 0.00 | 0.00 | 0.00 | 88 | 1016.7 | |
| 20260830204539 | 17 | 0.0 | 0.0 | 0.00 | 0.00 | 0.00 | 88 | 1016.4 | |
| 20260830203518 | 17 | 0.0 | 0.0 | 0.00 | 0.00 | 0.00 | 87 | 1016.4 | |
| 20260830202519 | 18 | 0.0 | 0.0 | 0.00 | 0.00 | 0.00 | 86 | 1016.4 | |
| 20260830201523 | 18 | 0.0 | 0.0 | 0.00 | 0.00 | 0.00 | 85 | 1016.3 | |
| 20260830200525 | 18 | 0.0 | 0.0 | 0.00 | 0.00 | 0.00 | 85 | 1016.3 | |
| 20260830195534 | 18 | 0.0 | 0.0 | 0.00 | 0.00 | 0.00 | 83 | 1016.3 | |
| 20260830194541 | 18 | 0.0 | 0.0 | 0.00 | 0.00 | 0.00 | 83 | 1016.2 | |
| 20260830193525 | 18 | 0.0 | 0.0 | 0.00 | 0.00 | 0.00 | 81 | 1016.2 | |
| 20260830192521 | 19 | 0.0 | 0.0 | 0.00 | 0.00 | 0.00 | 81 | 1015.9 | |
| 20260830191541 | 19 | 0.0 | 0.0 | 0.00 | 0.00 | 0.00 | 80 | 1016.1 | |
| 20260830190541 | 20 | 0.0 | 0.0 | 0.00 | 0.00 | 0.00 | 80 | 1016.0 | |
| 20260830185524 | 20 | 0.0 | 0.0 | 0.00 | 0.00 | 0.00 | 78 | 1015.8 | |
| 20260830184550 | 20 | 0.0 | 0.0 | 0.00 | 0.00 | 0.00 | 77 | 1015.8 | |
| 20260830183521 | 20 | 0.0 | 0.0 | 0.00 | 0.00 | 0.00 | 76 | 1015.8 | |
| 20260830182635 | 21 | 0.0 | 0.0 | 0.00 | 0.00 | 0.00 | 73 | 1015.4 | |
| 20260830181519 | 21 | 0.0 | 0.0 | 0.00 | 0.00 | 0.00 | 71 | 1015.4 | |
| 20260830180519 | 22 | 0.0 | 0.0 | 0.00 | 0.00 | 0.00 | 69 | 1015.4 | |
| 20260830175539 | 22 | 0.0 | 0.0 | 0.00 | 0.00 | 0.00 | 69 | 1015.0 |